Home   Weather   St. George   Past weeks
Flag for USA

Past Weather in St. George, Utah, USA — Yesterday and Last 2 Weeks

Now
47 °F

Overcast.


Feels Like: 46 °F
Forecast: 58 / 46 °F
Wind: 3 mph from North

Location: Saint George

Current Time: Mar 29, 2020 at 9:12:53 am

Latest Report: Mar 29, 2020 at 7:56 am


Visibility: 10 mi

Pressure: 30.02 "Hg (27.10 "Hg at 842m altitude)

Humidity: 59%

Dew Point: 33 °F

Location of St. GeorgeLocation

Past Weather in St. George — Graph

°F

St. George Temperature Yesterday

Maximum temperature yesterday: 60 °F (at 4:56 pm)
Minimum temperature yesterday: 34 °F (at 5:56 am)
Average temperature yesterday: 48 °F

High & Low Weather Summary for the Past Weeks

 TemperatureHumidityPressure
High66 °F (Mar 15, 4:25 pm)100% (Mar 20, 7:30 am)30.27 "Hg (Mar 20, 7:30 am)
Low34 °F (Mar 28, 5:56 am)21% (Mar 25, 5:56 pm)29.68 "Hg (Mar 18, 10:56 pm)
Average51 °F62%29.97 "Hg
* Reported Mar 14 7:56 am — Mar 29 7:56 am, St. George. Weather by CustomWeather, © 2020

Note: Actual official high and low records may vary slightly from our data, if they occured in-between our weather recording intervals... More about our weather records

St. George Weather History for the Previous 24 Hours

Scroll right to see more
 ConditionsComfort  
Time TempWeatherWind HumidityBarometerVisibility
7:56 am
Sun, Mar 29
47 °FOvercast.3 mph59%30.02 "Hg10 mi
6:56 am46 °FPartly cloudy.No wind63%30.00 "Hg10 mi
5:56 am49 °FPassing clouds.No wind46%29.99 "Hg10 mi
4:56 am49 °FOvercast.3 mph50%29.99 "Hg10 mi
3:56 am50 °FPassing clouds.5 mph46%29.99 "Hg10 mi
2:56 am50 °FMostly cloudy.5 mph48%30.01 "Hg10 mi
1:56 am51 °FOvercast.5 mph44%30.03 "Hg10 mi
12:56 am51 °FPassing clouds.No wind44%30.03 "Hg10 mi
11:56 pm
Sat, Mar 28
51 °FOvercast.6 mph46%30.04 "Hg10 mi
10:56 pm51 °FPassing clouds.6 mph44%30.05 "Hg10 mi
9:56 pm52 °FClear.No wind38%30.06 "Hg10 mi
8:56 pm54 °FPassing clouds.6 mph31%30.05 "Hg10 mi
7:56 pm56 °FClear.6 mph24%30.05 "Hg10 mi
6:56 pm58 °FSunny.9 mph21%30.04 "Hg10 mi
5:56 pm59 °FSunny.10 mph21%30.04 "Hg10 mi
4:56 pm60 °FSunny.9 mph22%30.04 "Hg10 mi
3:56 pm59 °FSunny.14 mph21%30.07 "Hg10 mi
2:56 pm58 °FSunny.No wind25%30.09 "Hg10 mi
1:56 pm56 °FSunny.No wind30%30.12 "Hg10 mi
12:56 pm53 °FSunny.No wind32%30.15 "Hg10 mi
11:56 am49 °FSunny.3 mph44%30.18 "Hg10 mi
10:56 am46 °FSunny.No wind51%30.18 "Hg10 mi
9:56 am41 °FSunny.No wind65%30.19 "Hg10 mi
Weather by CustomWeather, © 2020

See weather overview

Advertising